FW1276 Princess Anne MD US current weather conditions

sailwx.info

Wind from 038

Air temperature -1.7° C
Dewpoint -3.2° C

Last reported at 2020-Jan-23 13:55 UTC.
Time now 2020-Jan-23 14:28 UTC

Location: N 38°12' W 075°42'.
View on Google Maps.

See reports from other nearby stations

  
Tides and Currents Weather Stations Pressure Air Temp Water Temp Dewpoint Dewpoint Depression Visibility Wind Speed Wind Dir Waves Ship Positions
date/time (UTC)wind fromknots sea level pressurealtimeterstation pressurevisibilityair tempwater tempwave heightnotes
2020-Jan-23 14:10 290 -1.1
2020-Jan-23 14:05 290 -1.1
2020-Jan-23 14:00 290 -1.7
2020-Jan-23 13:55 038 -1.7
2020-Jan-23 13:50 053 -1.7
2020-Jan-23 13:45 053 -2.2
2020-Jan-23 13:40 053 -2.2
2020-Jan-23 13:35 052 -2.2
2020-Jan-23 13:30 052 -2.8
2020-Jan-23 13:25 097 -2.8
2020-Jan-23 13:20 097 -3.3
2020-Jan-23 13:15 097 -3.3
2020-Jan-23 13:10 097 -3.9
2020-Jan-23 13:05 098 -3.9
2020-Jan-23 13:00 098 -3.9
2020-Jan-23 12:55 098 -4.4
2020-Jan-23 12:50 097 -4.4
2020-Jan-23 12:44 098 -4.4
2020-Jan-23 12:39 097 -4.4
2020-Jan-23 12:34 098 -4.4
2020-Jan-23 12:29 098 -4.4
2020-Jan-23 12:24 097 -4.4
2020-Jan-23 12:19 097 -5.0
2020-Jan-23 12:14 098 -5.0
2020-Jan-23 12:09 097 -5.0
2020-Jan-23 12:04 098 -5.0
2020-Jan-23 11:59 097 -5.0
2020-Jan-23 11:54 097 -5.0
2020-Jan-23 11:49 138 -5.0
2020-Jan-23 11:44 138 -5.0
2020-Jan-23 11:39 138 -5.0
2020-Jan-23 11:34 138 -5.0
2020-Jan-23 11:29 138 -4.4
2020-Jan-23 11:24 139 -4.4
2020-Jan-23 11:19 138 -4.4
2020-Jan-23 11:14 138 -4.4
2020-Jan-23 11:09 138 -4.4
2020-Jan-23 11:04 139 -5.0
2020-Jan-23 10:59 138 -5.0
2020-Jan-23 10:54 138 -5.0
2020-Jan-23 10:49 138 -5.0
2020-Jan-23 10:44 138 -5.0
2020-Jan-23 10:39 139 -5.0
2020-Jan-23 10:34 138 -5.6
2020-Jan-23 10:29 138 -5.0
2020-Jan-23 10:24 138 -5.0
2020-Jan-23 10:19 138 -5.0
2020-Jan-23 10:14 138 -5.0
2020-Jan-23 10:09 139 -5.0
2020-Jan-23 10:04 138 -5.6
2020-Jan-23 09:59 138 -5.6
2020-Jan-23 09:54 139 -5.6
2020-Jan-23 09:49 138 -5.6
2020-Jan-23 09:44 138 -5.6
2020-Jan-23 09:39 138 -5.6
2020-Jan-23 09:34 138 -6.1
2020-Jan-23 09:29 138 -6.1
2020-Jan-23 09:24 138 -6.1
2020-Jan-23 09:19 138 -6.1
2020-Jan-23 09:14 138 -6.1
2020-Jan-23 09:09 138 -6.1
2020-Jan-23 09:04 138 -6.1
2020-Jan-23 08:59 138 -6.1
2020-Jan-23 08:54 138 -5.6
2020-Jan-23 08:49 138 -5.6
2020-Jan-23 08:44 138 -5.6
2020-Jan-23 08:39 138 -6.1
2020-Jan-23 08:34 138 -6.1
2020-Jan-23 08:29 139 -6.1
2020-Jan-23 08:24 138 -5.6
2020-Jan-23 08:19 139 -5.6
2020-Jan-23 08:14 138 -5.6
2020-Jan-23 08:09 138 -5.6
2020-Jan-23 08:04 138 -5.6
2020-Jan-23 07:59 138 -5.6
2020-Jan-23 07:54 138 -5.6
2020-Jan-23 07:49 138 -5.6
2020-Jan-23 07:44 139 -5.6
2020-Jan-23 07:39 138 -5.6
2020-Jan-23 07:34 138 -5.6
2020-Jan-23 07:29 139 -5.6
2020-Jan-23 07:24 138 -5.6
2020-Jan-23 07:19 138 -5.6
2020-Jan-23 07:14 139 -5.6
2020-Jan-23 07:09 139 -5.6
2020-Jan-23 07:04 138 -5.6
2020-Jan-23 06:59 138 -5.6
2020-Jan-23 06:54 138 -5.6
2020-Jan-23 06:49 138 -5.6
2020-Jan-23 06:44 138 -5.0
2020-Jan-23 06:39 138 -5.0
2020-Jan-23 06:34 138 -5.0
2020-Jan-23 06:29 139 -5.0
2020-Jan-23 06:24 138 -5.0
2020-Jan-23 06:19 138 -5.0
2020-Jan-23 06:14 138 -5.0
2020-Jan-23 06:09 138 -5.0
2020-Jan-23 06:04 138 -5.0
2020-Jan-23 05:59 138 -5.0
2020-Jan-23 05:54 138 -5.0
2020-Jan-23 05:49 139 -5.0
2020-Jan-23 05:44 138 -5.0
2020-Jan-23 05:39 138 -5.0
2020-Jan-23 05:34 138 -5.0
2020-Jan-23 05:29 139 -5.0
2020-Jan-23 05:24 138 -5.0
2020-Jan-23 05:19 139 -5.0
2020-Jan-23 05:14 138 -4.4
2020-Jan-23 05:09 138 -4.4
2020-Jan-23 05:04 138 -4.4
2020-Jan-23 04:59 139 -4.4
2020-Jan-23 04:54 138 -4.4
2020-Jan-23 04:49 139 -4.4
2020-Jan-23 04:44 138 -4.4
2020-Jan-23 04:39 138 -4.4
2020-Jan-23 04:34 138 -4.4
2020-Jan-23 04:29 138 -4.4
2020-Jan-23 04:24 138 -4.4
2020-Jan-23 04:19 138 -4.4
2020-Jan-23 04:14 138 -4.4
2020-Jan-23 04:09 139 -4.4
2020-Jan-23 04:04 139 -3.9
2020-Jan-23 03:59 138 -3.9
2020-Jan-23 03:54 138 -4.4
2020-Jan-23 03:49 138 -4.4
2020-Jan-23 03:44 138 -4.4
2020-Jan-23 03:39 138 -4.4
2020-Jan-23 03:34 139 -4.4
2020-Jan-23 03:29 138 -4.4
2020-Jan-23 03:24 138 -4.4
2020-Jan-23 03:19 138 -4.4
2020-Jan-23 03:14 138 -4.4
2020-Jan-23 03:09 138 -4.4
2020-Jan-23 03:04 138 -3.9
2020-Jan-23 02:59 138 -3.9
2020-Jan-23 02:54 138 -3.9
2020-Jan-23 02:49 138 -3.9
2020-Jan-23 02:44 138 -3.9
2020-Jan-23 02:39 137 -3.9
2020-Jan-23 02:34 139 -3.3
2020-Jan-23 02:29 138 -3.3
2020-Jan-23 02:24 139 -3.3
2020-Jan-23 02:19 138 -3.3
2020-Jan-23 02:13 138 -3.3
2020-Jan-23 02:08 138 0 gusting 2 -3.3
2020-Jan-23 02:03 098 -3.3
2020-Jan-23 01:58 092 -3.3
2020-Jan-23 01:53 091 -3.3
2020-Jan-23 01:48 091 -3.3
2020-Jan-23 01:43 092 -3.3
2020-Jan-23 01:38 091 -3.3
2020-Jan-23 01:33 091 -3.3
2020-Jan-23 01:28 091 -2.8
2020-Jan-23 01:23 091 -2.8
2020-Jan-23 01:18 091 -2.8
2020-Jan-23 01:13 091 -2.8
2020-Jan-23 01:08 091 -2.8
2020-Jan-23 01:03 091 -2.8
2020-Jan-23 00:58 091 -2.8
2020-Jan-23 00:53 091 -2.8
2020-Jan-23 00:48 091 -2.8
2020-Jan-23 00:43 091 -2.2
2020-Jan-23 00:38 091 -2.2
2020-Jan-23 00:33 092 -2.2
2020-Jan-23 00:28 091 -2.2
2020-Jan-23 00:23 091 -2.2
2020-Jan-23 00:18 092 -1.7
2020-Jan-23 00:13 091 -1.7
2020-Jan-23 00:08 079 -1.7
2020-Jan-23 00:03 079 -1.7
2020-Jan-22 23:58 079 -1.7
2020-Jan-22 23:53 079 -1.7
2020-Jan-22 23:48 079 -1.7
2020-Jan-22 23:43 079 -1.7
2020-Jan-22 23:38 079 -1.1
2020-Jan-22 23:33 079 -1.1
2020-Jan-22 23:28 079 -0.6
2020-Jan-22 23:23 079 -0.6
2020-Jan-22 23:18 079 -0.0
2020-Jan-22 23:13 079 -0.0
2020-Jan-22 23:08 079 0.6
2020-Jan-22 23:03 079 0.6
2020-Jan-22 22:58 079 0.6
2020-Jan-22 22:53 079 1.1
2020-Jan-22 22:48 079 1.1
2020-Jan-22 22:44 079 1.7
2020-Jan-22 22:38 079 1.7
2020-Jan-22 22:33 079 2.2
2020-Jan-22 22:28 079 2.2
2020-Jan-22 22:23 079 2.8
2020-Jan-22 22:18 079 2.8
2020-Jan-22 22:13 079 2.8
2020-Jan-22 22:08 079 3.3
2020-Jan-22 22:03 079 3.3
2020-Jan-22 21:58 079 3.9
2020-Jan-22 21:53 079 0 gusting 2 3.9
2020-Jan-22 21:48 088 0 gusting 5 4.4
2020-Jan-22 21:43 070 0 gusting 5 4.4
2020-Jan-22 21:38 027 0 gusting 2 4.4
2020-Jan-22 21:33 016 0 gusting 2 5.0
2020-Jan-22 21:28 077 0 gusting 2 5.0
2020-Jan-22 21:23 078 0 gusting 2 5.6
2020-Jan-22 21:18 046 0 gusting 2 5.6
2020-Jan-22 21:13 105 1 gusting 5 5.6
2020-Jan-22 21:08 109 1 gusting 6 5.6
2020-Jan-22 21:03 075 1 gusting 6 5.6
2020-Jan-22 20:58 101 0 gusting 4 6.1
2020-Jan-22 20:53 236 1 gusting 5 6.1
2020-Jan-22 20:48 335 1 gusting 5 6.1
2020-Jan-22 20:43 033 1 gusting 4 6.1
2020-Jan-22 20:38 084 0 gusting 4 6.1
2020-Jan-22 20:33 214 0 gusting 3 6.1
2020-Jan-22 20:28 267 0 gusting 4 6.1
2020-Jan-22 20:23 097 1 gusting 4 6.1
2020-Jan-22 20:18 003 1 gusting 4 6.1
2020-Jan-22 20:13 075 1 gusting 4 6.1
2020-Jan-22 20:08 090 1 gusting 3 6.1
2020-Jan-22 20:03 047 1 gusting 6 6.1
2020-Jan-22 19:58 010 1 gusting 6 6.1
2020-Jan-22 19:53 101 0 gusting 3 5.6
2020-Jan-22 19:48 226 1 gusting 3 5.6
2020-Jan-22 19:43 036 1 gusting 5 5.6
2020-Jan-22 19:38 091 1 gusting 5 5.6
2020-Jan-22 19:33 289 1 gusting 4 6.1
2020-Jan-22 19:28 302 0 gusting 4 6.1
2020-Jan-22 19:23 025 1 gusting 5 6.1
2020-Jan-22 19:18 083 1 gusting 5 5.6
2020-Jan-22 19:13 260 1 gusting 3 5.6
2020-Jan-22 19:08 109 0 gusting 3 5.6
2020-Jan-22 19:03 289 0 gusting 3 5.6
2020-Jan-22 18:58 228 1 gusting 4 5.6
2020-Jan-22 18:53 317 1 gusting 5 5.6
2020-Jan-22 18:48 255 1 gusting 5 5.6
2020-Jan-22 18:43 291 0 gusting 3 5.6
2020-Jan-22 18:38 298 0 gusting 4 5.0
2020-Jan-22 18:33 098 1 gusting 5 5.0
2020-Jan-22 18:28 108 1 gusting 6 5.0
2020-Jan-22 18:23 081 1 gusting 6 4.4
2020-Jan-22 18:18 016 0 gusting 4 4.4
2020-Jan-22 18:13 096 1 gusting 4 4.4
2020-Jan-22 18:08 084 1 gusting 4 4.4
2020-Jan-22 18:03 086 2 gusting 5 3.9
2020-Jan-22 17:58 082 2 gusting 6 3.9
2020-Jan-22 17:53 086 1 gusting 6 3.9
2020-Jan-22 17:48 117 1 gusting 4 3.9
2020-Jan-22 17:43 082 1 gusting 4 3.3
2020-Jan-22 17:38 094 1 gusting 6 3.3
2020-Jan-22 17:33 110 0 gusting 6 3.3
2020-Jan-22 17:28 111 0 gusting 3 3.3
2020-Jan-22 17:23 285 1 gusting 3 3.3
2020-Jan-22 17:18 086 1 gusting 5 3.3
2020-Jan-22 17:13 113 1 gusting 6 2.8
2020-Jan-22 17:08 073 2 gusting 6 2.8
2020-Jan-22 17:03 070 1 gusting 5 2.8
2020-Jan-22 16:58 072 0 gusting 4 2.8
2020-Jan-22 16:53 309 1 gusting 3 2.8
2020-Jan-22 16:48 101 1 gusting 5 2.2
2020-Jan-22 16:43 078 2 gusting 5 2.2
2020-Jan-22 16:38 068 1 gusting 6 2.2
2020-Jan-22 16:33 287 1 gusting 6 1.7
2020-Jan-22 16:28 274 1 gusting 3 1.7
2020-Jan-22 16:23 105 1 gusting 4 1.7
2020-Jan-22 16:18 049 1 gusting 5 1.7
2020-Jan-22 16:13 040 0 gusting 5 1.7
2020-Jan-22 16:08 058 0 gusting 3 1.1
2020-Jan-22 16:03 251 1 gusting 3 1.1
2020-Jan-22 15:58 297 1 gusting 4 1.1
2020-Jan-22 15:53 270 1 gusting 4 1.1
2020-Jan-22 15:48 079 1 gusting 4 0.6
2020-Jan-22 15:43 333 1 gusting 5 0.6
2020-Jan-22 15:38 285 1 gusting 6 0.6
2020-Jan-22 15:33 072 1 gusting 6 0.6
2020-Jan-22 15:28 065 1 gusting 5 -0.0
2020-Jan-22 15:23 001 1 gusting 3 -0.0
2020-Jan-22 15:18 099 1 gusting 5 -0.0
2020-Jan-22 15:13 057 1 gusting 5 -0.6
2020-Jan-22 15:08 293 1 gusting 6 -0.6
2020-Jan-22 15:03 033 2 gusting 6 -0.6
2020-Jan-22 14:58 112 0 gusting 5 -0.6
2020-Jan-22 14:53 094 0 gusting 4 -1.1
2020-Jan-22 14:48 326 1 gusting 4 -1.1
2020-Jan-22 14:43 081 0 gusting 3 -1.7
2020-Jan-22 14:38 118 0 gusting 2 -1.7
2020-Jan-22 14:33 317 0 gusting 2 -2.2
2020-Jan-22 14:28 018 0 gusting 3 -2.2
2020-Jan-22 14:23 323 0 gusting 3 -2.2
2020-Jan-22 14:18 056 0 gusting 3 -2.8
2020-Jan-22 14:13 102 -2.8
2020-Jan-22 14:08 238 -3.3
2020-Jan-22 14:03 305 -3.3
2020-Jan-22 13:58 293 -3.9
2020-Jan-22 13:53 269 -3.9
2020-Jan-22 13:48 270 -4.4
2020-Jan-22 13:43 267 -4.4
2020-Jan-22 13:38 252 -5.0
2020-Jan-22 13:33 041 -5.0
2020-Jan-22 13:28 003 -5.6
2020-Jan-22 13:23 264 -6.1
2020-Jan-22 13:18 264 -6.1
2020-Jan-22 13:13 322 -6.7
2020-Jan-22 13:08 321 -6.7
2020-Jan-22 13:03 321 -7.2
2020-Jan-22 12:58 321 -7.2
2020-Jan-22 12:52 321 -7.2
2020-Jan-22 12:47 321 -7.2
2020-Jan-22 12:42 321 -7.2
2020-Jan-22 12:37 321 -7.2
2020-Jan-22 12:32 321 -7.2
2020-Jan-22 12:27 322 -7.8
2020-Jan-22 12:22 322 -7.8
2020-Jan-22 12:17 321 -7.8
2020-Jan-22 12:12 321 -7.8
2020-Jan-22 12:07 321 -7.8
2020-Jan-22 12:02 322 -7.8
2020-Jan-22 11:57 321 -7.8
2020-Jan-22 11:52 321 -7.8
2020-Jan-22 11:47 321 -7.2
2020-Jan-22 11:42 321 -7.2
2020-Jan-22 11:37 321 -7.2
2020-Jan-22 11:32 321 -7.2
2020-Jan-22 11:27 322 -7.2
2020-Jan-22 11:22 321 -7.2
2020-Jan-22 11:17 321 -7.2
2020-Jan-22 11:12 321 -7.2
2020-Jan-22 11:07 322 -7.2
2020-Jan-22 11:02 322 -7.2
2020-Jan-22 10:57 321 -7.2
2020-Jan-22 10:52 321 -7.2
2020-Jan-22 10:47 321 -7.2
2020-Jan-22 10:42 321 -7.2
2020-Jan-22 10:37 321 -7.2
2020-Jan-22 10:32 321 -7.2
2020-Jan-22 10:27 321 -7.2
2020-Jan-22 10:22 321 -7.2
2020-Jan-22 10:17 321 -7.2
2020-Jan-22 10:12 321 -6.7
2020-Jan-22 10:07 322 -6.7
2020-Jan-22 10:02 321 -6.7
2020-Jan-22 09:57 321 -6.7
2020-Jan-22 09:52 321 -6.7
2020-Jan-22 09:47 321 -6.7
2020-Jan-22 09:42 322 -6.7
2020-Jan-22 09:37 321 -6.7
2020-Jan-22 09:32 321 -6.7
2020-Jan-22 09:27 321 -6.7
2020-Jan-22 09:22 321 -6.7
2020-Jan-22 09:17 322 -6.7
2020-Jan-22 09:12 321 -6.7
2020-Jan-22 09:07 321 -6.7
2020-Jan-22 09:02 321 -6.7
2020-Jan-22 08:57 321 -6.7
2020-Jan-22 08:52 321 -6.1
2020-Jan-22 08:47 322 -6.1
2020-Jan-22 08:42 321 -6.1
2020-Jan-22 08:37 322 -6.1
2020-Jan-22 08:32 321 -6.1
2020-Jan-22 08:27 322 -6.1
2020-Jan-22 08:22 322 -6.1
2020-Jan-22 08:17 321 -6.1
2020-Jan-22 08:12 321 -6.1
2020-Jan-22 08:07 329 -6.1
2020-Jan-22 08:02 329 -6.7
2020-Jan-22 07:57 329 -6.1
2020-Jan-22 07:52 329 -6.7
2020-Jan-22 07:47 329 -6.7
2020-Jan-22 07:42 329 -6.7
2020-Jan-22 07:37 329 -6.7
2020-Jan-22 07:32 329 -6.1
2020-Jan-22 07:27 329 -6.1
2020-Jan-22 07:22 329 -6.1
2020-Jan-22 07:17 329 -6.1
2020-Jan-22 07:12 329 -6.1
2020-Jan-22 07:07 328 -5.6
2020-Jan-22 07:02 329 -5.6
2020-Jan-22 06:57 329 -5.6
2020-Jan-22 06:52 329 -5.6
2020-Jan-22 06:47 329 -5.6
2020-Jan-22 06:42 342 -5.0
2020-Jan-22 06:37 341 -5.0
2020-Jan-22 06:32 345 -5.6
2020-Jan-22 06:27 036 -5.6
2020-Jan-22 06:22 036 -5.0
2020-Jan-22 06:17 036 -5.0
2020-Jan-22 06:12 035 -5.0
2020-Jan-22 06:07 035 -5.0
2020-Jan-22 06:02 035 -5.0
2020-Jan-22 05:57 035 -5.6
2020-Jan-22 05:52 023 -5.6
2020-Jan-22 05:47 023 -5.6
2020-Jan-22 05:42 023 -5.6
2020-Jan-22 05:37 020 -5.6
2020-Jan-22 05:32 020 -5.6
2020-Jan-22 05:27 020 -5.6
2020-Jan-22 05:22 020 -5.6
2020-Jan-22 05:17 020 -5.6
2020-Jan-22 05:12 020 -5.6
2020-Jan-22 05:07 020 -5.6
2020-Jan-22 05:01 020 -5.6
2020-Jan-22 04:57 020 -5.6
2020-Jan-22 04:51 020 -5.6
2020-Jan-22 04:46 020 -5.0
2020-Jan-22 04:41 020 -5.0
2020-Jan-22 04:36 020 -5.0
2020-Jan-22 04:31 020 -5.0
2020-Jan-22 04:26 020 -5.0
2020-Jan-22 04:21 020 -5.0
2020-Jan-22 04:16 020 -4.4
2020-Jan-22 04:11 020 -4.4
2020-Jan-22 04:06 020 -4.4
2020-Jan-22 04:01 020 -4.4
2020-Jan-22 03:56 020 -4.4
2020-Jan-22 03:51 017 -4.4
2020-Jan-22 03:46 017 -5.0
2020-Jan-22 03:41 303 -5.0
2020-Jan-22 03:36 304 -5.0
2020-Jan-22 03:31 304 -5.0
2020-Jan-22 03:26 304 -5.0
2020-Jan-22 03:21 304 -5.0
2020-Jan-22 03:16 304 -5.0
2020-Jan-22 03:11 304 -5.0
2020-Jan-22 03:06 304 -5.0
2020-Jan-22 03:01 304 -5.0
2020-Jan-22 02:56 304 -5.0
2020-Jan-22 02:51 304 -5.0
2020-Jan-22 02:46 304 -5.0
2020-Jan-22 02:41 304 -5.0
2020-Jan-22 02:36 304 -5.0
2020-Jan-22 02:31 304 -5.0
2020-Jan-22 02:26 304 -5.0
2020-Jan-22 02:21 304 -5.0
2020-Jan-22 02:16 304 -5.0
2020-Jan-22 02:11 304 -5.0
2020-Jan-22 02:06 304 -5.0
2020-Jan-22 02:01 304 -5.0
2020-Jan-22 01:56 304 -4.4
2020-Jan-22 01:51 304 -4.4
2020-Jan-22 01:46 304 -5.0
2020-Jan-22 01:41 304 -4.4
2020-Jan-22 01:36 304 -4.4
2020-Jan-22 01:31 304 -4.4
2020-Jan-22 01:26 304 -4.4
2020-Jan-22 01:21 304 -4.4
2020-Jan-22 01:16 304 -4.4
2020-Jan-22 01:11 304 -4.4
2020-Jan-22 01:06 304 -4.4
2020-Jan-22 01:01 304 -3.9
2020-Jan-22 00:56 304 -3.9
2020-Jan-22 00:51 304 -3.9
2020-Jan-22 00:46 304 -3.9
2020-Jan-22 00:41 304 -3.9
2020-Jan-22 00:36 304 -3.9
2020-Jan-22 00:31 304 -3.3
2020-Jan-22 00:26 304 -3.3
2020-Jan-22 00:21 304 -3.3
2020-Jan-22 00:16 304 -3.3
2020-Jan-22 00:11 304 -3.3
2020-Jan-22 00:06 304 -3.3
2020-Jan-22 00:01 304 -3.3
2020-Jan-21 23:56 304 -3.3
2020-Jan-21 23:51 304 -3.3
2020-Jan-21 23:46 304 -3.3
2020-Jan-21 23:41 304 -3.3
2020-Jan-21 23:36 304 -3.3
2020-Jan-21 23:31 304 -3.3
2020-Jan-21 23:26 304 -2.8
2020-Jan-21 23:21 304 -2.8
2020-Jan-21 23:16 304 -2.8
2020-Jan-21 23:11 304 -2.8
2020-Jan-21 23:06 304 -2.2
2020-Jan-21 23:01 304 -2.2
2020-Jan-21 22:56 304 -2.2
2020-Jan-21 22:51 304 -2.2
2020-Jan-21 22:46 304 -1.7
2020-Jan-21 22:41 304 -1.7
2020-Jan-21 22:36 304 -1.1
2020-Jan-21 22:31 304 -1.1
2020-Jan-21 22:26 304 -0.6
2020-Jan-21 22:21 304 -0.6
2020-Jan-21 22:16 304 0 gusting 4 -0.6
2020-Jan-21 22:11 015 0 gusting 4 -0.0
2020-Jan-21 22:06 019 0 gusting 5 -0.0
2020-Jan-21 22:01 354 1 gusting 5 -0.0
2020-Jan-21 21:56 310 0 gusting 4 0.6
2020-Jan-21 21:51 262 0 gusting 4 0.6
2020-Jan-21 21:46 329 0 gusting 3 0.6
2020-Jan-21 21:41 276 0 gusting 3 0.6
2020-Jan-21 21:36 336 0 gusting 3 1.1
2020-Jan-21 21:31 337 0 gusting 2 1.1
2020-Jan-21 21:26 308 1 gusting 3 1.1
2020-Jan-21 21:21 099 2 gusting 7 1.7
2020-Jan-21 21:16 298 1 gusting 7 1.7
2020-Jan-21 21:11 290 1 gusting 4 1.7
2020-Jan-21 21:06 290 1 gusting 5 1.7
2020-Jan-21 21:01 120 1 gusting 5 1.7
2020-Jan-21 20:56 065 1 gusting 7 1.7
2020-Jan-21 20:51 292 1 gusting 6 2.2
2020-Jan-21 20:46 260 1 gusting 6 1.7
2020-Jan-21 20:41 312 1 gusting 6 1.7
2020-Jan-21 20:36 290 2 gusting 6 1.7
2020-Jan-21 20:31 273 1 gusting 6 1.7
2020-Jan-21 20:26 297 1 gusting 6 1.7
2020-Jan-21 20:21 097 2 gusting 8 1.7
2020-Jan-21 20:16 318 2 gusting 8 1.7
2020-Jan-21 20:11 152 2 gusting 10 2.2
2020-Jan-21 20:06 316 2 gusting 10 2.2
2020-Jan-21 20:01 317 1 gusting 6 2.8
2020-Jan-21 19:56 283 1 gusting 7 2.8
2020-Jan-21 19:51 293 1 gusting 7 2.8
2020-Jan-21 19:46 074 0 gusting 6 2.8
2020-Jan-21 19:41 015 1 gusting 6 2.2
2020-Jan-21 19:36 342 1 gusting 6 2.2
2020-Jan-21 19:31 357 2 gusting 6 2.2
2020-Jan-21 19:26 297 1 gusting 6 2.2
2020-Jan-21 19:21 316 1 gusting 6 2.8
2020-Jan-21 19:16 296 1 gusting 7 2.2
2020-Jan-21 19:11 305 1 gusting 7 2.2
2020-Jan-21 19:06 278 2 gusting 10 2.2
2020-Jan-21 19:01 072 2 gusting 10 2.2
2020-Jan-21 18:56 285 1 gusting 6 2.2
2020-Jan-21 18:51 347 1 gusting 5 2.2
2020-Jan-21 18:46 270 1 gusting 5 1.7
2020-Jan-21 18:41 322 1 gusting 4 1.7
2020-Jan-21 18:36 070 1 gusting 6 1.7
2020-Jan-21 18:31 081 1 gusting 6 1.7
2020-Jan-21 18:26 073 1 gusting 6 1.7
2020-Jan-21 18:21 292 2 gusting 9 1.1
2020-Jan-21 18:16 103 2 gusting 9 1.1
2020-Jan-21 18:11 080 2 gusting 6 1.1
2020-Jan-21 18:06 008 1 gusting 6 1.1
2020-Jan-21 18:01 004 0 gusting 6 1.1
2020-Jan-21 17:56 095 1 gusting 6 1.1
2020-Jan-21 17:51 117 2 gusting 7 1.1
2020-Jan-21 17:46 060 2 gusting 7 0.6
2020-Jan-21 17:41 073 1 gusting 6 0.6
2020-Jan-21 17:36 068 1 gusting 6 0.6
2020-Jan-21 17:31 086 1 gusting 6 0.6
2020-Jan-21 17:26 073 1 gusting 6 0.6
2020-Jan-21 17:21 040 1 gusting 6 -0.0
2020-Jan-21 17:16 349 1 gusting 7 -0.0
2020-Jan-21 17:11 084 2 gusting 7 -0.0
2020-Jan-21 17:05 266 2 gusting 7 -0.0
2020-Jan-21 17:01 257 1 gusting 7 -0.6
2020-Jan-21 16:55 027 1 gusting 7 -0.6
2020-Jan-21 16:51 277 2 gusting 7 -0.6
2020-Jan-21 16:46 347 2 gusting 6 -0.6
2020-Jan-21 16:41 082 2 gusting 6 -1.1
2020-Jan-21 16:36 119 2 gusting 6 -1.1
2020-Jan-21 16:30 005 2 gusting 7 -1.1
2020-Jan-21 16:26 082 3 gusting 7 -1.1
2020-Jan-21 16:21 058 3 gusting 8 -1.1
2020-Jan-21 16:15 349 2 gusting 8 -1.1
2020-Jan-21 16:11 347 2 gusting 6 -1.7
2020-Jan-21 16:06 077 4 gusting 12 -1.7
2020-Jan-21 16:01 102 4 gusting 12 -1.7
2020-Jan-21 15:56 111 3 gusting 8 -1.7
2020-Jan-21 15:50 044 2 gusting 7 -1.7
2020-Jan-21 15:46 352 2 gusting 6 -1.7
2020-Jan-21 15:41 129 2 gusting 6 -2.2
2020-Jan-21 15:36 049 4 gusting 12 -2.2
2020-Jan-21 15:31 086 3 gusting 12 -2.2
2020-Jan-21 15:25 088 3 gusting 8 -2.2
2020-Jan-21 15:20 073 3 gusting 11 -2.2
2020-Jan-21 15:16 086 2 gusting 11 -2.2
2020-Jan-21 15:11 022 1 gusting 8 -2.8
2020-Jan-21 15:06 132 1 gusting 6 -2.8
2020-Jan-21 15:01 057 2 gusting 7 -2.8
2020-Jan-21 14:56 318 2 gusting 7 -2.8
2020-Jan-21 14:50 028 1 gusting 6 -3.3
2020-Jan-21 14:45 032 2 gusting 6 -3.3
2020-Jan-21 14:40 019 2 gusting 10 -3.3
2020-Jan-21 14:35 009 2 gusting 10 -3.3
2020-Jan-21 14:30 082 2 gusting 8 -3.3
2020-Jan-21 14:25 071 2 gusting 8 -3.9
2020-Jan-21 14:20 040 0 gusting 6 -3.9
2020-Jan-21 14:15 034 -3.9
2020-Jan-21 14:10 111 0 gusting 6 -4.4
2020-Jan-21 14:05 358 0 gusting 6 -4.4
2020-Jan-21 14:00 044 -4.4